NORTHEAST SUFFOLK  -  Frost Advisory Frost Advisory     Special Weather Statement Special Weather Statement        NORTHERN NASSAU  -  Frost Advisory Frost Advisory     Special Weather Statement Special Weather Statement        NORTHWEST SUFFOLK  -  Frost Advisory Frost Advisory     Special Weather Statement Special Weather Statement        SOUTHEAST SUFFOLK  -  Frost Advisory Frost Advisory     Special Weather Statement Special Weather Statement        SOUTHERN NASSAU  -  Frost Advisory Frost Advisory     Special Weather Statement Special Weather Statement        SOUTHWEST SUFFOLK  -  Frost Advisory Frost Advisory     Special Weather Statement Special Weather Statement        NORTHERN QUEENS  -  Special Weather Statement Special Weather Statement        SOUTHERN QUEENS  -  Special Weather Statement Special Weather Statement      

Active alerts

Northern Nassau
  Details for Northern Nassau Frost Advisory  +1 additional alert
Southern Nassau
  Details for Southern Nassau Frost Advisory  +1 additional alert
Northwest Suffolk
  Details for Northwest Suffolk Frost Advisory  +1 additional alert
Southwest Suffolk
  Details for Southwest Suffolk Frost Advisory  +1 additional alert
Northeast Suffolk
  Details for Northeast Suffolk Frost Advisory  +1 additional alert
Southeast Suffolk
  Details for Southeast Suffolk Frost Advisory  +1 additional alert
Northern Queens
  Details for Northern Queens Special Weather Statement
Southern Queens
  Details for Southern Queens Special Weather Statement


WXM80 ListenWXM80 Stop

You find our weather info also at:

UK Metoffice

WeatherCloud

Weather Underground

Northeastern Weather Network

AWEKAS

Citizen Weather Observer Program (CWOP)

HAMweather, WeatherForYou, PWS Weather


Weather Underground History page Text

Daily Summary for August 28, 2017 Units:  Metric    English   Both
« Previous Day
Next Day »
Daily Weekly Monthly Yearly Custom
  High: Low: Average:
Temperature: 25.2 °C 13.9 °C 19.3 °C
Dew Point: 16.7 °C 10.7 °C 13.8 °C
Humidity: 97 % 43 % 73 %
Wind Speed: 9.2 km/h 0 km/h 1.8 km/h
Wind Gust: 16.7 km/h - -
Wind:- - East
Pressure: 1025.3 hPa 1022.2 hPa -
Precipitation: 0 mm    
Historical Graphs
 
 
Tabular Data for August 28, 2017
Time Temperature Dew Point Pressure Wind Wind Speed Wind Gust Humidity Rainfall Rate (Hourly)
00:01 16.7 °C 12.9 °C 1023.6 hPa Calm     78 % 0 mm
00:06 16.7 °C 12.8 °C 1023.6 hPa Calm     78 % 0 mm
00:11 16.6 °C 12.9 °C 1023.6 hPa Calm     79 % 0 mm
00:16 16.5 °C 12.8 °C 1023.6 hPa Calm     79 % 0 mm
00:21 16.4 °C 12.9 °C 1023.6 hPa Calm     80 % 0 mm
00:26 16.3 °C 12.8 °C 1023.6 hPa Calm     80 % 0 mm
00:31 16.2 °C 12.8 °C 1023.6 hPa Calm     80 % 0 mm
00:36 16.2 °C 12.9 °C 1023.6 hPa Calm     81 % 0 mm
00:41 16.1 °C 12.8 °C 1023.6 hPa Calm     81 % 0 mm
00:46 15.9 °C 12.7 °C 1023.6 hPa Calm     81 % 0 mm
00:51 15.9 °C 12.8 °C 1023.6 hPa Calm     82 % 0 mm
00:56 15.8 °C 12.7 °C 1023.6 hPa Calm     82 % 0 mm
01:01 15.7 °C 12.8 °C 1023.6 hPa Calm     83 % 0 mm
01:06 15.6 °C 12.6 °C 1023.2 hPa Calm     82 % 0 mm
01:11 15.5 °C 12.6 °C 1023.2 hPa Calm     83 % 0 mm
01:16 15.4 °C 12.6 °C 1023.2 hPa Calm     83 % 0 mm
01:21 15.4 °C 12.7 °C 1023.2 hPa Calm     84 % 0 mm
01:26 15.3 °C 12.7 °C 1023.2 hPa Calm     84 % 0 mm
01:32 15.3 °C 12.8 °C 1023.2 hPa Calm     85 % 0 mm
01:37 15.2 °C 12.7 °C 1023.2 hPa Calm     85 % 0 mm
01:42 15.2 °C 12.7 °C 1023.2 hPa Calm     85 % 0 mm
01:47 15.1 °C 12.6 °C 1023.2 hPa Calm     85 % 0 mm
01:52 15.1 °C 12.6 °C 1023.2 hPa Calm     85 % 0 mm
01:57 15 °C 12.7 °C 1023.2 hPa Calm     86 % 0 mm
02:02 15 °C 12.8 °C 1023.2 hPa Calm     87 % 0 mm
02:07 14.9 °C 12.8 °C 1023.2 hPa SE 0.2 km/h   87 % 0 mm
02:12 14.9 °C 12.8 °C 1023.2 hPa Calm     87 % 0 mm
02:17 14.9 °C 12.7 °C 1022.9 hPa Calm     87 % 0 mm
02:22 14.9 °C 12.7 °C 1022.9 hPa Calm     87 % 0 mm
02:27 14.8 °C 12.9 °C 1022.6 hPa SE 0.8 km/h 1.9 km/h 88 % 0 mm
02:32 14.8 °C 12.9 °C 1022.6 hPa SE 0.3 km/h 1.9 km/h 88 % 0 mm
02:37 14.8 °C 12.8 °C 1022.6 hPa SE 0.8 km/h 3.7 km/h 88 % 0 mm
02:42 14.8 °C 13 °C 1022.2 hPa Calm   1.9 km/h 89 % 0 mm
02:47 14.8 °C 13 °C 1022.6 hPa SE 1.1 km/h 3.7 km/h 89 % 0 mm
02:52 14.8 °C 13.2 °C 1022.2 hPa Calm     90 % 0 mm
02:57 14.8 °C 13.2 °C 1022.2 hPa Calm     90 % 0 mm
03:02 14.8 °C 13.2 °C 1022.2 hPa SE 1.3 km/h 1.9 km/h 90 % 0 mm
03:07 14.8 °C 13.4 °C 1022.2 hPa SE 0.2 km/h 1.9 km/h 91 % 0 mm
03:13 14.8 °C 13.4 °C 1022.2 hPa Calm   1.9 km/h 91 % 0 mm
03:18 14.8 °C 13.4 °C 1022.2 hPa SE 0.6 km/h 1.9 km/h 91 % 0 mm
03:23 14.8 °C 13.4 °C 1022.2 hPa Calm     91 % 0 mm
03:28 14.8 °C 13.4 °C 1022.2 hPa Calm   1.9 km/h 91 % 0 mm
03:33 14.8 °C 13.4 °C 1022.2 hPa SE 0.8 km/h 3.7 km/h 91 % 0 mm
03:38 14.8 °C 13.3 °C 1022.2 hPa SE 0.5 km/h 3.7 km/h 91 % 0 mm
03:43 14.8 °C 13.3 °C 1022.2 hPa Calm   1.9 km/h 91 % 0 mm
03:48 14.8 °C 13.3 °C 1022.2 hPa Calm     91 % 0 mm
03:53 14.8 °C 13.3 °C 1022.2 hPa Calm     91 % 0 mm
03:58 14.7 °C 13.3 °C 1022.6 hPa Calm     91 % 0 mm
04:03 14.7 °C 13.3 °C 1022.6 hPa Calm     91 % 0 mm
04:08 14.7 °C 13.3 °C 1022.6 hPa Calm     91 % 0 mm
04:13 14.7 °C 13.2 °C 1022.6 hPa Calm     91 % 0 mm
04:18 14.7 °C 13.2 °C 1022.6 hPa Calm     91 % 0 mm
04:23 14.7 °C 13.2 °C 1022.6 hPa Calm     91 % 0 mm
04:29 14.7 °C 13.4 °C 1022.6 hPa Calm     92 % 0 mm
04:34 14.7 °C 13.4 °C 1022.6 hPa Calm     92 % 0 mm
04:39 14.6 °C 13.3 °C 1022.6 hPa Calm     92 % 0 mm
04:44 14.6 °C 13.3 °C 1022.6 hPa Calm     92 % 0 mm
04:49 14.6 °C 13.3 °C 1022.9 hPa Calm     92 % 0 mm
04:54 14.6 °C 13.3 °C 1022.9 hPa Calm   1.9 km/h 92 % 0 mm
04:59 14.5 °C 13.2 °C 1022.9 hPa Calm     92 % 0 mm
05:04 14.5 °C 13.1 °C 1022.9 hPa Calm     91 % 0 mm
05:09 14.4 °C 13 °C 1022.9 hPa Calm     91 % 0 mm
05:14 14.4 °C 13 °C 1023.2 hPa Calm     91 % 0 mm
05:19 14.4 °C 12.9 °C 1023.2 hPa Calm     91 % 0 mm
05:24 14.3 °C 12.9 °C 1023.2 hPa Calm     91 % 0 mm
05:29 14.3 °C 12.8 °C 1023.2 hPa Calm     91 % 0 mm
05:34 14.2 °C 12.8 °C 1023.2 hPa Calm     91 % 0 mm
05:39 14.2 °C 12.7 °C 1022.9 hPa Calm     91 % 0 mm
05:44 14.2 °C 12.7 °C 1022.9 hPa Calm     91 % 0 mm
05:49 14.1 °C 12.7 °C 1022.9 hPa Calm     91 % 0 mm
05:54 14.1 °C 12.6 °C 1023.2 hPa Calm   1.9 km/h 91 % 0 mm
06:00 14.1 °C 12.6 °C 1023.2 hPa Calm   1.9 km/h 91 % 0 mm
06:05 14 °C 12.6 °C 1023.2 hPa Calm   1.9 km/h 91 % 0 mm
06:10 14 °C 12.6 °C 1023.2 hPa Calm   3.7 km/h 91 % 0 mm
06:15 13.9 °C 12.7 °C 1023.2 hPa SE 0.6 km/h 3.7 km/h 92 % 0 mm
06:20 13.9 °C 12.7 °C 1023.2 hPa Calm   1.9 km/h 92 % 0 mm
06:25 13.9 °C 12.7 °C 1023.6 hPa Calm   1.9 km/h 92 % 0 mm
06:30 13.9 °C 12.7 °C 1023.6 hPa SE 0.5 km/h 3.7 km/h 92 % 0 mm
06:35 13.9 °C 12.8 °C 1023.6 hPa Calm     93 % 0 mm
06:38 13.9 °C 12.8 °C 1023.6 hPa Calm     93 % 0 mm
06:43 14 °C 12.9 °C 1023.6 hPa Calm     93 % 0 mm
06:48 14 °C 13.1 °C 1023.6 hPa Calm     94 % 0 mm
06:53 14.1 °C 13.1 °C 1023.6 hPa SE 1.1 km/h 3.7 km/h 94 % 0 mm
06:58 14.2 °C 13.2 °C 1023.9 hPa Calm     94 % 0 mm
07:03 14.2 °C 13.4 °C 1023.9 hPa SE 0.2 km/h 1.6 km/h 95 % 0 mm
07:08 14.4 °C 13.6 °C 1024.3 hPa Calm     95 % 0 mm
07:13 14.6 °C 13.8 °C 1024.3 hPa Calm     95 % 0 mm
07:18 14.8 °C 14.2 °C 1024.3 hPa NE 1.1 km/h 3.7 km/h 96 % 0 mm
07:23 15.2 °C 14.6 °C 1024.3 hPa ENE 1.8 km/h 5.6 km/h 96 % 0 mm
07:28 15.5 °C 14.9 °C 1024.3 hPa NE 3.7 km/h 5.6 km/h 96 % 0 mm
07:33 15.8 °C 15.3 °C 1024.6 hPa NE 3.4 km/h 6.4 km/h 97 % 0 mm
07:38 16.1 °C 15.6 °C 1024.6 hPa ENE 2.4 km/h 5.6 km/h 97 % 0 mm
07:43 16.3 °C 15.8 °C 1024.6 hPa ENE 2.3 km/h 6.4 km/h 97 % 0 mm
07:48 16.5 °C 16 °C 1024.6 hPa ENE 1.6 km/h 3.7 km/h 97 % 0 mm
07:53 16.7 °C 16.2 °C 1024.9 hPa ENE 2.1 km/h 7.4 km/h 97 % 0 mm
07:58 16.9 °C 16.2 °C 1024.9 hPa NE 2.3 km/h 11.1 km/h 96 % 0 mm
08:03 17.1 °C 16.4 °C 1024.9 hPa ENE 0.3 km/h 5.6 km/h 96 % 0 mm
08:08 17.2 °C 16.6 °C 1024.9 hPa NE 2.9 km/h 5.6 km/h 96 % 0 mm
08:13 17.4 °C 16.6 °C 1024.9 hPa NE 1.9 km/h 7.4 km/h 95 % 0 mm
08:18 17.6 °C 16.6 °C 1025.3 hPa NNE 3.4 km/h 13 km/h 94 % 0 mm
08:24 17.8 °C 16.6 °C 1025.3 hPa ENE 1.3 km/h 5.6 km/h 93 % 0 mm
08:29 18 °C 16.7 °C 1025.3 hPa ENE 2.6 km/h 9.3 km/h 92 % 0 mm
08:34 18.2 °C 16.6 °C 1025.3 hPa ENE 6.8 km/h 14.8 km/h 90 % 0 mm
08:39 18.4 °C 16.4 °C 1024.9 hPa ENE 6 km/h 11.1 km/h 88 % 0 mm
08:44 18.6 °C 16.3 °C 1024.9 hPa NE 6.1 km/h 11.1 km/h 87 % 0 mm
08:49 18.7 °C 16.3 °C 1024.9 hPa ENE 6.6 km/h 13 km/h 86 % 0 mm
08:54 18.9 °C 16.3 °C 1024.9 hPa NNE 6.1 km/h 11.1 km/h 85 % 0 mm
08:59 19 °C 16.2 °C 1024.9 hPa NE 7.2 km/h 11.1 km/h 84 % 0 mm
09:04 19.1 °C 16.2 °C 1025.3 hPa ENE 4.5 km/h 7.4 km/h 83 % 0 mm
09:09 19.2 °C 16.3 °C 1025.3 hPa ENE 1.8 km/h 3.7 km/h 83 % 0 mm
09:14 19.4 °C 16.4 °C 1025.3 hPa NE 3.2 km/h 6.4 km/h 83 % 0 mm
09:19 19.4 °C 16.3 °C 1024.9 hPa ENE 6.1 km/h 7.4 km/h 82 % 0 mm
09:24 19.6 °C 16.4 °C 1024.9 hPa ENE 5.1 km/h 7.4 km/h 82 % 0 mm
09:29 19.6 °C 16.1 °C 1024.9 hPa ENE 3.7 km/h 7.4 km/h 80 % 0 mm
09:34 19.8 °C 16.2 °C 1024.9 hPa ENE 4.8 km/h 11.1 km/h 80 % 0 mm
09:39 19.8 °C 16.1 °C 1024.9 hPa NE 5.8 km/h 11.1 km/h 79 % 0 mm
09:44 20 °C 16.4 °C 1024.9 hPa NE 7.2 km/h 7.4 km/h 80 % 0 mm
09:49 20.3 °C 16.1 °C 1025.3 hPa NE 8.2 km/h 11.3 km/h 77 % 0 mm
09:54 20.6 °C 16.4 °C 1025.3 hPa ENE 4.7 km/h 11.1 km/h 77 % 0 mm
09:59 20.8 °C 16.2 °C 1025.3 hPa NE 3.7 km/h 13 km/h 75 % 0 mm
10:04 21.2 °C 16.3 °C 1025.3 hPa ENE 4.3 km/h 9.3 km/h 74 % 0 mm
10:09 21.4 °C 16.1 °C 1025.3 hPa NNE 5.3 km/h 13 km/h 72 % 0 mm
10:14 21.4 °C 15.9 °C 1025.3 hPa NE 4 km/h 13 km/h 71 % 0 mm
10:19 21.4 °C 15.9 °C 1025.3 hPa NE 4 km/h 14.8 km/h 71 % 0 mm
10:24 21.4 °C 16.4 °C 1024.9 hPa ENE 3.9 km/h 11.1 km/h 73 % 0 mm
10:29 21.5 °C 16.2 °C 1024.9 hPa ENE 4.7 km/h 7.4 km/h 72 % 0 mm
10:34 21.4 °C 15.7 °C 1024.6 hPa ENE 9 km/h 14.8 km/h 70 % 0 mm
10:39 21.4 °C 15.9 °C 1024.9 hPa NE 3.7 km/h 5.6 km/h 71 % 0 mm
10:44 21.4 °C 15.9 °C 1024.9 hPa NE 5.1 km/h 7.4 km/h 71 % 0 mm
10:49 21.5 °C 15.6 °C 1024.6 hPa ENE 2.9 km/h 5.6 km/h 69 % 0 mm
10:54 21.6 °C 15.7 °C 1024.6 hPa ENE 4.8 km/h 5.6 km/h 69 % 0 mm
10:59 21.8 °C 15.4 °C 1024.6 hPa ENE 5.6 km/h 11.1 km/h 67 % 0 mm
11:04 21.9 °C 16 °C 1024.6 hPa ENE 2.7 km/h 5.6 km/h 69 % 0 mm
11:10 22.2 °C 15.5 °C 1024.6 hPa ENE 4.3 km/h 13 km/h 66 % 0 mm
11:15 22.4 °C 15.8 °C 1024.6 hPa ENE 5.6 km/h 11.1 km/h 66 % 0 mm
11:20 22.8 °C 15.7 °C 1024.9 hPa ENE 6.1 km/h 11.1 km/h 64 % 0 mm
11:25 23.1 °C 15.7 °C 1024.6 hPa ENE 3.2 km/h 14.8 km/h 63 % 0 mm
11:30 23.4 °C 16.2 °C 1024.9 hPa ENE 2.6 km/h 5.6 km/h 64 % 0 mm
11:35 23.4 °C 16 °C 1024.6 hPa ENE 2.3 km/h 5.6 km/h 63 % 0 mm
11:40 23.3 °C 15.1 °C 1024.6 hPa ENE 7.2 km/h 16.7 km/h 60 % 0 mm
11:45 23.3 °C 15.1 °C 1024.3 hPa NE 2.4 km/h 5.6 km/h 60 % 0 mm
11:50 23.3 °C 15.3 °C 1024.3 hPa ENE 6.8 km/h 13 km/h 61 % 0 mm
11:55 23.1 °C 14.9 °C 1024.3 hPa ENE 3.7 km/h 6.4 km/h 60 % 0 mm
12:00 23.1 °C 15.4 °C 1024.3 hPa ENE 2.6 km/h 5.6 km/h 62 % 0 mm
12:05 23.2 °C 15.6 °C 1024.3 hPa ENE 2.4 km/h 6.4 km/h 62 % 0 mm
12:10 23.4 °C 14.7 °C 1024.3 hPa ENE 5.3 km/h 13 km/h 58 % 0 mm
12:15 23.7 °C 14.4 °C 1024.3 hPa ENE 4.3 km/h 7.4 km/h 56 % 0 mm
12:20 23.8 °C 14.8 °C 1024.3 hPa ENE 3.5 km/h 8 km/h 57 % 0 mm
12:25 24.2 °C 14.6 °C 1024.3 hPa ENE 5.6 km/h 11.3 km/h 55 % 0 mm
12:30 24.4 °C 14.8 °C 1024.3 hPa ENE 4.3 km/h 5.6 km/h 55 % 0 mm
12:35 24.8 °C 14.6 °C 1024.3 hPa ENE 6.1 km/h 9.3 km/h 53 % 0 mm
12:40 24.9 °C 14.1 °C 1024.3 hPa NE 6.8 km/h 9.7 km/h 51 % 0 mm
12:45 24.9 °C 14.4 °C 1024.3 hPa ENE 3.9 km/h 9.3 km/h 52 % 0 mm
12:50 24.8 °C 14.6 °C 1023.9 hPa ENE 7.6 km/h 11.1 km/h 53 % 0 mm
12:55 24.8 °C 14.8 °C 1023.9 hPa ENE 3.9 km/h 5.6 km/h 54 % 0 mm
13:00 24.9 °C 14.9 °C 1023.9 hPa NE 4.2 km/h 7.4 km/h 54 % 0 mm
13:05 25.1 °C 15.1 °C 1023.9 hPa ENE 4.3 km/h 14.8 km/h 54 % 0 mm
13:10 25.2 °C 14.1 °C 1023.9 hPa ENE 9.2 km/h 14.8 km/h 50 % 0 mm
13:15 25.1 °C 14.2 °C 1023.9 hPa East 5.1 km/h 9.3 km/h 51 % 0 mm
13:20 25 °C 15.1 °C 1023.9 hPa ENE 4 km/h 13 km/h 54 % 0 mm
13:25 25.1 °C 14.5 °C 1023.9 hPa ENE 4.7 km/h 9.3 km/h 52 % 0 mm
13:30 25 °C 15.1 °C 1023.9 hPa ENE 3.1 km/h 5.6 km/h 54 % 0 mm
13:35 24.9 °C 14.4 °C 1023.9 hPa ENE 7.2 km/h 14.8 km/h 52 % 0 mm
13:40 24.8 °C 14.3 °C 1023.9 hPa ENE 3.7 km/h 9.3 km/h 52 % 0 mm
13:45 24.8 °C 14.3 °C 1023.9 hPa ENE 4.8 km/h 11.1 km/h 52 % 0 mm
13:50 24.8 °C 13.3 °C 1023.9 hPa East 5.5 km/h 11.3 km/h 49 % 0 mm
13:56 24.8 °C 13.7 °C 1023.9 hPa ENE 3.2 km/h 11.3 km/h 50 % 0 mm
14:01 24.8 °C 14.3 °C 1023.9 hPa ENE 3.9 km/h 13 km/h 52 % 0 mm
14:06 24.7 °C 14.2 °C 1023.9 hPa East 5.1 km/h 5.6 km/h 52 % 0 mm
14:11 24.6 °C 14.7 °C 1023.9 hPa ENE 3.2 km/h 9.7 km/h 54 % 0 mm
14:16 24.6 °C 13.7 °C 1023.9 hPa ENE 4.8 km/h 12.9 km/h 51 % 0 mm
14:21 24.6 °C 13.8 °C 1023.9 hPa ENE 8 km/h 11.3 km/h 51 % 0 mm
14:25 24.7 °C 13.6 °C 1023.9 hPa ENE 3.4 km/h 7.4 km/h 50 % 0 mm
14:30 24.7 °C 13.6 °C 1023.9 hPa East 3.9 km/h 5.6 km/h 50 % 0 mm
14:36 24.8 °C 12.8 °C 1023.6 hPa ENE 3.2 km/h 9.7 km/h 47 % 0 mm
14:41 24.7 °C 12.7 °C 1023.9 hPa ENE 4.8 km/h 9.7 km/h 47 % 0 mm
14:46 24.7 °C 12 °C 1023.9 hPa ENE 3.2 km/h 8 km/h 45 % 0 mm
14:51 24.6 °C 12.6 °C 1023.6 hPa ENE 3.2 km/h 11.3 km/h 47 % 0 mm
14:56 24.5 °C 12.4 °C 1023.6 hPa ENE 3.2 km/h 16.1 km/h 47 % 0 mm
15:01 24.5 °C 12.4 °C 1023.6 hPa East 3.2 km/h 5.6 km/h 47 % 0 mm
15:06 24.6 °C 12.2 °C 1023.6 hPa ENE 2.7 km/h 5.6 km/h 46 % 0 mm
15:11 24.6 °C 12.5 °C 1023.6 hPa ENE 2.7 km/h 5.6 km/h 47 % 0 mm
15:16 24.5 °C 12.4 °C 1023.6 hPa East 3.5 km/h 7.4 km/h 47 % 0 mm
15:21 24.4 °C 11.4 °C 1023.2 hPa East 3.4 km/h 5.6 km/h 44 % 0 mm
15:26 24.3 °C 11.6 °C 1023.2 hPa ESE 2.9 km/h 5.6 km/h 45 % 0 mm
15:31 24.3 °C 11.6 °C 1023.2 hPa East 2.7 km/h 5.6 km/h 45 % 0 mm
15:36 24.3 °C 11.9 °C 1023.2 hPa East 3.4 km/h 7.4 km/h 46 % 0 mm
15:41 24.2 °C 11.8 °C 1022.9 hPa East 2.4 km/h 3.7 km/h 46 % 0 mm
15:46 24.1 °C 11.4 °C 1022.9 hPa East 2.9 km/h 5.6 km/h 45 % 0 mm
15:51 24.1 °C 11.8 °C 1022.9 hPa East 3.4 km/h 5.6 km/h 46 % 0 mm
15:56 24.1 °C 11.4 °C 1022.9 hPa East 2.3 km/h 5.6 km/h 45 % 0 mm
16:01 24.1 °C 10.7 °C 1022.9 hPa East 1.9 km/h 9.3 km/h 43 % 0 mm
16:06 24.1 °C 11.8 °C 1022.9 hPa East 2.1 km/h 4.8 km/h 46 % 0 mm
16:11 24.1 °C 10.7 °C 1023.2 hPa ESE 3.1 km/h 5.6 km/h 43 % 0 mm
16:21 24.1 °C 11.4 °C 1022.9 hPa ESE 3.4 km/h 9.3 km/h 45 % 0 mm
16:26 24.1 °C 11.1 °C 1023.2 hPa East 4.8 km/h 13 km/h 44 % 0 mm
16:31 24.1 °C 11.7 °C 1023.2 hPa East 3.7 km/h 5.6 km/h 46 % 0 mm
16:36 24.1 °C 12.1 °C 1022.9 hPa ESE 1.9 km/h 3.7 km/h 47 % 0 mm
16:41 24.1 °C 12.1 °C 1022.9 hPa SE 4.5 km/h 6.4 km/h 47 % 0 mm
16:46 24.1 °C 12.1 °C 1023.2 hPa SE 1.6 km/h 3.7 km/h 47 % 0 mm
16:51 24.1 °C 12.4 °C 1023.2 hPa ESE 0.3 km/h 3.7 km/h 48 % 0 mm
16:56 24 °C 12.9 °C 1023.2 hPa ESE 1 km/h 1.9 km/h 50 % 0 mm
16:57 24 °C 12.9 °C 1022.9 hPa ESE 0.8 km/h 3.7 km/h 50 % 0 mm
17:02 23.9 °C 12.3 °C 1023.2 hPa SE 1 km/h 5.6 km/h 48 % 0 mm
17:07 23.8 °C 12.4 °C 1022.9 hPa SE 2.1 km/h 5.6 km/h 49 % 0 mm
17:12 23.7 °C 12 °C 1022.9 hPa SE 4.5 km/h 5.6 km/h 48 % 0 mm
17:17 23.5 °C 12.5 °C 1022.9 hPa ESE 0.5 km/h 3.7 km/h 50 % 0 mm
17:22 23.4 °C 12.7 °C 1022.9 hPa ESE 0.8 km/h 3.7 km/h 51 % 0 mm
17:27 23.3 °C 12.9 °C 1022.9 hPa ESE 0.5 km/h 3.7 km/h 52 % 0 mm
17:32 23.2 °C 12.8 °C 1022.9 hPa ESE 0.8 km/h 1.9 km/h 52 % 0 mm
17:37 23.2 °C 13.1 °C 1022.9 hPa ESE 0.6 km/h 1.9 km/h 53 % 0 mm
17:42 23.1 °C 13 °C 1022.9 hPa ESE 1.3 km/h 1.9 km/h 53 % 0 mm
17:47 23.1 °C 12.9 °C 1022.9 hPa SE 1 km/h 5.6 km/h 53 % 0 mm
17:48 23.1 °C 13 °C 1023.2 hPa SE 0.6 km/h 5.6 km/h 53 % 0 mm
17:53 23.1 °C 13.2 °C 1023.2 hPa SE 3.9 km/h 7.4 km/h 54 % 0 mm
17:58 23 °C 13.7 °C 1023.2 hPa SE 1.1 km/h 3.7 km/h 56 % 0 mm
18:03 22.9 °C 13.7 °C 1023.2 hPa SE 0.2 km/h 1.9 km/h 56 % 0 mm
18:08 22.8 °C 13.9 °C 1023.2 hPa SE 0.8 km/h 3.7 km/h 57 % 0 mm
18:13 22.8 °C 13.8 °C 1023.2 hPa SE 0.5 km/h 3.7 km/h 57 % 0 mm
18:18 22.7 °C 14 °C 1023.2 hPa SE 1.3 km/h 3.7 km/h 58 % 0 mm
18:23 22.6 °C 13.6 °C 1023.2 hPa SE 1 km/h 3.7 km/h 57 % 0 mm
18:28 22.5 °C 13.8 °C 1023.2 hPa ESE 0.6 km/h 3.7 km/h 58 % 0 mm
18:33 22.4 °C 14.1 °C 1023.2 hPa ESE 0.2 km/h 5.6 km/h 59 % 0 mm
18:38 22.3 °C 13.6 °C 1023.2 hPa SE 2.7 km/h 5.6 km/h 58 % 0 mm
18:43 22.2 °C 13.8 °C 1023.2 hPa SE 0.6 km/h 3.7 km/h 59 % 0 mm
18:48 22.1 °C 13.7 °C 1023.2 hPa SE 1.8 km/h 3.7 km/h 59 % 0 mm
18:53 21.9 °C 13.6 °C 1023.2 hPa SE 0.3 km/h 1.9 km/h 59 % 0 mm
18:58 21.8 °C 13.7 °C 1023.6 hPa Calm     60 % 0 mm
19:03 21.8 °C 13.7 °C 1023.6 hPa Calm     60 % 0 mm
19:08 21.6 °C 13.8 °C 1023.6 hPa SE 0.6 km/h 1.6 km/h 61 % 0 mm
19:13 21.5 °C 13.7 °C 1023.6 hPa SE 2.3 km/h 3.2 km/h 61 % 0 mm
19:18 21.3 °C 13.5 °C 1023.6 hPa SE 2.4 km/h 3.7 km/h 61 % 0 mm
19:23 21.2 °C 13.3 °C 1023.6 hPa SE 0.5 km/h 1.9 km/h 61 % 0 mm
19:28 21.1 °C 13.2 °C 1023.6 hPa SE 0.5 km/h 1.9 km/h 61 % 0 mm
19:33 20.9 °C 13.3 °C 1023.6 hPa SE 1 km/h 1.9 km/h 62 % 0 mm
19:38 20.8 °C 13.5 °C 1023.6 hPa SE 2.1 km/h 3.7 km/h 63 % 0 mm
19:43 20.6 °C 13.6 °C 1023.6 hPa SE 2.4 km/h 5.6 km/h 64 % 0 mm
19:48 20.4 °C 13.7 °C 1023.6 hPa SE 1 km/h 3.7 km/h 65 % 0 mm
19:54 20.2 °C 13.4 °C 1023.6 hPa SE 1.1 km/h 3.7 km/h 65 % 0 mm
19:59 20.1 °C 13.6 °C 1023.6 hPa SE 2.1 km/h 5.6 km/h 66 % 0 mm
20:04 19.9 °C 13.6 °C 1023.6 hPa SE 1 km/h 5.6 km/h 67 % 0 mm
20:09 19.8 °C 13.7 °C 1023.6 hPa SE 1.6 km/h 3.7 km/h 68 % 0 mm
20:14 19.6 °C 13.6 °C 1023.6 hPa SE 0.6 km/h 3.7 km/h 68 % 0 mm
20:19 19.5 °C 13.4 °C 1023.6 hPa Calm   1.9 km/h 68 % 0 mm
20:24 19.3 °C 13.3 °C 1023.6 hPa SE 1.1 km/h 1.9 km/h 68 % 0 mm
20:29 19.2 °C 13.4 °C 1023.6 hPa Calm   1.9 km/h 69 % 0 mm
20:34 19.1 °C 13.5 °C 1023.6 hPa Calm     70 % 0 mm
20:39 18.9 °C 13.3 °C 1023.6 hPa Calm     70 % 0 mm
20:44 18.8 °C 13.4 °C 1023.6 hPa Calm     71 % 0 mm
20:49 18.7 °C 13.3 °C 1023.6 hPa Calm     71 % 0 mm
20:54 18.6 °C 13.4 °C 1023.6 hPa Calm     72 % 0 mm
20:59 18.4 °C 13.5 °C 1023.6 hPa Calm   1.9 km/h 73 % 0 mm
21:04 18.3 °C 13.6 °C 1023.6 hPa Calm     74 % 0 mm
21:09 18.2 °C 13.3 °C 1023.6 hPa Calm     73 % 0 mm
21:14 18.2 °C 13.4 °C 1023.6 hPa Calm     74 % 0 mm
21:19 18.1 °C 13.3 °C 1023.6 hPa Calm     74 % 0 mm
21:24 18 °C 13.3 °C 1023.9 hPa Calm   1.6 km/h 74 % 0 mm
21:29 17.9 °C 13.4 °C 1023.9 hPa SE 0.2 km/h 1.9 km/h 75 % 0 mm
21:34 17.8 °C 13.3 °C 1023.9 hPa SE 0.5 km/h 1.9 km/h 75 % 0 mm
21:40 17.7 °C 13.4 °C 1023.9 hPa Calm     76 % 0 mm
21:45 17.7 °C 13.4 °C 1023.6 hPa Calm   1.9 km/h 76 % 0 mm
21:50 17.6 °C 13.3 °C 1023.6 hPa Calm     76 % 0 mm
21:55 17.5 °C 13.6 °C 1023.6 hPa Calm     78 % 0 mm
22:00 17.4 °C 13.8 °C 1023.2 hPa Calm   1.9 km/h 79 % 0 mm
22:05 17.3 °C 13.7 °C 1023.2 hPa SE 0.2 km/h 1.9 km/h 79 % 0 mm
22:10 17.3 °C 13.8 °C 1023.2 hPa Calm   1.9 km/h 80 % 0 mm
22:15 17.3 °C 13.8 °C 1023.2 hPa SE 0.5 km/h 1.9 km/h 80 % 0 mm
22:20 17.2 °C 13.9 °C 1023.2 hPa SE 0.2 km/h 1.9 km/h 81 % 0 mm
22:25 17.2 °C 13.9 °C 1023.2 hPa SE 0.2 km/h 1.9 km/h 81 % 0 mm
22:30 17.2 °C 13.9 °C 1023.2 hPa SE 0.2 km/h 3.7 km/h 81 % 0 mm
22:35 17.2 °C 13.9 °C 1023.2 hPa Calm   1.9 km/h 81 % 0 mm
22:40 17.2 °C 14.1 °C 1023.2 hPa SE 0.5 km/h 1.9 km/h 82 % 0 mm
22:45 17.2 °C 14.1 °C 1023.2 hPa Calm   1.9 km/h 82 % 0 mm
22:50 17.2 °C 14.1 °C 1023.2 hPa SE 0.6 km/h 1.9 km/h 82 % 0 mm
22:55 17.2 °C 14.1 °C 1023.2 hPa SE 0.3 km/h 1.9 km/h 82 % 0 mm
23:01 17.2 °C 14.1 °C 1023.2 hPa Calm   1.9 km/h 82 % 0 mm
23:05 17.2 °C 14.1 °C 1023.2 hPa Calm     82 % 0 mm
23:11 17.2 °C 14.1 °C 1023.2 hPa Calm   1.9 km/h 82 % 0 mm
23:17 17.2 °C 14.1 °C 1023.2 hPa SE 0.2 km/h 1.9 km/h 82 % 0 mm
23:22 17.2 °C 14.1 °C 1023.2 hPa Calm   1.9 km/h 82 % 0 mm
23:25 17.2 °C 14.3 °C 1023.2 hPa Calm   1.9 km/h 83 % 0 mm
23:26 17.2 °C 14.3 °C 1023.2 hPa SE 0.2 km/h 1.9 km/h 83 % 0 mm
23:29 17.2 °C 14.3 °C 1023.2 hPa SE 0.2 km/h 1.9 km/h 83 % 0 mm
23:31 17.2 °C 14.3 °C 1023.2 hPa Calm     83 % 0 mm
23:36 17.2 °C 14.3 °C 1023.2 hPa Calm   1.9 km/h 83 % 0 mm
23:41 17.2 °C 14.3 °C 1023.2 hPa Calm     83 % 0 mm
23:46 17.1 °C 14.2 °C 1023.2 hPa SE 0.6 km/h 1.9 km/h 83 % 0 mm
23:51 17.1 °C 14.2 °C 1023.2 hPa SE 0.2 km/h 1.9 km/h 83 % 0 mm
23:56 17.1 °C 14.2 °C 1023.2 hPa SE 0.5 km/h 1.9 km/h 83 % 0 mm
Crab Meadow Weather
Compliments of Weather Underground - 3 mb

Script developed by  Jim McMurry - jmcmurry@mwt.net Adapted for the template by  Wim van der Kuil - Leuven-Template.eu

Hurricanes: In one day a hurricane can release enough energy to supply all of the nation's electrical needs for about six months.